Terminal Aerodrome Forecast
Issued by NWS

Home | Current Version | Previous Version | Text Only | Print | Product List | Glossary Off
Versions: 1 2 3 4 5 6 7 8 9 10 11 12 13 14 15 16 17 18 19 20 21

000
FTUS42 KMHX 151646 AAC
TAFOAJ
TAF AMD
KOAJ 151646Z 1517/1612 04010G15KT P6SM OVC015
     FM151800 04010G15KT P6SM SCT015 OVC035
     FM152000 04010KT 6SM -RA SCT015 OVC035
     FM160600 04008KT P6SM VCSH SCT015 OVC030
      AMD LTD TO CLD VIS AND WIND=

USA.gov is the U.S. government's official web portal to all federal, state and local government web resources and services.